TimeCDT,TemperatureF,Dew PointF,Humidity,Sea Level PressureIn,VisibilityMPH,Wind Direction,Wind SpeedMPH,Gust SpeedMPH,PrecipitationIn,Events,Conditions,WindDirDegrees,DateUTC
12:56 AM,44.1,41.0,89,29.99,8.0,Calm,Calm,-,N/A,,Clear,0,2013-04-28 05:56:00
1:56 AM,43.0,39.9,89,29.98,7.0,Calm,Calm,-,N/A,,Clear,0,2013-04-28 06:56:00
2:56 AM,39.0,37.0,93,29.96,6.0,Calm,Calm,-,N/A,,Clear,0,2013-04-28 07:56:00
3:56 AM,39.9,37.9,93,29.94,6.0,Calm,Calm,-,N/A,,Clear,0,2013-04-28 08:56:00
4:56 AM,39.0,37.0,93,29.94,6.0,Calm,Calm,-,N/A,,Clear,0,2013-04-28 09:56:00
5:07 AM,37.4,35.6,93,29.95,3.0,Calm,Calm,-,N/A,,Partly Cloudy,0,2013-04-28 10:07:00
5:18 AM,39.2,37.4,93,29.95,2.0,Calm,Calm,-,N/A,,Clear,0,2013-04-28 10:18:00
5:28 AM,39.2,37.4,93,29.95,5.0,Calm,Calm,-,N/A,,Scattered Clouds,0,2013-04-28 10:28:00
5:56 AM,37.9,36.0,93,29.93,5.0,Calm,Calm,-,N/A,,Clear,0,2013-04-28 10:56:00
6:09 AM,37.4,35.6,93,29.94,2.5,Calm,Calm,-,N/A,,Clear,0,2013-04-28 11:09:00
6:22 AM,37.4,35.6,93,29.94,3.0,Calm,Calm,-,N/A,,Partly Cloudy,0,2013-04-28 11:22:00
6:48 AM,37.4,35.6,93,29.94,3.0,Calm,Calm,-,N/A,,Mostly Cloudy,0,2013-04-28 11:48:00
6:56 AM,39.0,37.0,93,29.94,3.0,Calm,Calm,-,N/A,,Scattered Clouds,0,2013-04-28 11:56:00
7:56 AM,46.9,43.0,86,29.95,6.0,WSW,3.5,-,N/A,,Clear,250,2013-04-28 12:56:00
8:56 AM,53.1,45.0,74,29.94,7.0,Calm,Calm,-,N/A,,Scattered Clouds,0,2013-04-28 13:56:00
9:56 AM,60.1,45.0,57,29.92,8.0,Calm,Calm,-,N/A,,Overcast,0,2013-04-28 14:56:00
10:56 AM,62.1,44.1,52,29.90,9.0,ESE,3.5,-,N/A,,Overcast,110,2013-04-28 15:56:00
11:56 AM,66.9,39.9,37,29.88,10.0,Calm,Calm,-,N/A,,Clear,0,2013-04-28 16:56:00
12:56 PM,69.1,41.0,36,29.86,10.0,East,5.8,-,N/A,,Clear,100,2013-04-28 17:56:00
1:56 PM,70.0,41.0,35,29.84,10.0,Variable,3.5,-,N/A,,Clear,0,2013-04-28 18:56:00
2:56 PM,73.0,39.9,30,29.82,10.0,Variable,3.5,-,N/A,,Clear,0,2013-04-28 19:56:00
3:56 PM,75.0,41.0,29,29.79,10.0,Calm,Calm,-,N/A,,Clear,0,2013-04-28 20:56:00
4:56 PM,73.0,39.0,29,29.78,10.0,Calm,Calm,-,N/A,,Clear,0,2013-04-28 21:56:00
5:56 PM,73.0,39.9,30,29.78,10.0,South,9.2,-,N/A,,Clear,190,2013-04-28 22:56:00
6:56 PM,72.0,41.0,33,29.76,10.0,SW,8.1,-,N/A,,Clear,220,2013-04-28 23:56:00
7:56 PM,68.0,42.1,39,29.77,10.0,SW,4.6,-,N/A,,Clear,220,2013-04-29 00:56:00
8:56 PM,59.0,43.0,55,29.78,10.0,Calm,Calm,-,N/A,,Clear,0,2013-04-29 01:56:00
9:56 PM,59.0,43.0,55,29.80,10.0,Calm,Calm,-,N/A,,Clear,0,2013-04-29 02:56:00
10:56 PM,54.0,45.0,72,29.79,9.0,ENE,3.5,-,N/A,,Clear,60,2013-04-29 03:56:00
11:56 PM,53.1,44.1,71,29.80,10.0,Calm,Calm,-,N/A,,Clear,0,2013-04-29 04:56:00